Back to catalog

SL-3 R/B

AliveSSO
NORAD 14208·ROCKET BODY·🇷🇺 Russia

Launched Jul 24, 1983 from Baikonur Cosmodrome

Loading…

Next Passes (next 24 hours)

TLE

FreshSource: Space-Track

Epoch: Sep 14, 2026, 22:09 UTC

1 14208U 83075B   26257.92325429  .00009653  00000-0  22712-3 0  9996
2 14208  97.6118 270.2067 0017898 270.3941  89.5255 15.42027893359284

Track SL-3 R/B in real time with AllMySat

Download on the App Store